EJU851F LFST-LFMN

Flight info

Callsign EJU851F
Flight time 1h 1m
Altitude 31000
Route AMDOQ DCT MOROK DCT GILIR DCT GEVEA DCT KOGAS DCT MEDAM DCT VEVAR
Aircraft A320/M-SDE2E3FGHIJ1RWXYZ/LB1

Departure

Time 2026-05-04 06:29
Airport Strasbourg Airport (LFST)

Arrival

Time 2026-05-04 07:30
Airport Nice-Côte d'Azur Airport (LFMN)
Time Latitude Longitude Altitude Speed Heading
2026-05-04 06:07 48.54420 7.62885 506 ft 0 kts 349°
2026-05-04 06:17 48.54402 7.62890 506 ft 4 kts 341°
2026-05-04 06:18 48.54378 7.62907 506 ft 4 kts 321°
2026-05-04 06:18 48.54363 7.62936 506 ft 4 kts 270°
2026-05-04 06:18 48.54364 7.62951 506 ft 0 kts 228°
2026-05-04 06:21 48.54248 7.62844 506 ft 12 kts 154°
2026-05-04 06:21 48.54180 7.62926 506 ft 12 kts 149°
2026-05-04 06:22 48.54108 7.62901 506 ft 11 kts 222°
2026-05-04 06:22 48.54055 7.62812 506 ft 13 kts 229°
2026-05-04 06:25 48.53201 7.61517 506 ft 8 kts 138°
2026-05-04 06:25 48.53150 7.61586 506 ft 12 kts 136°
2026-05-04 06:26 48.53143 7.61643 505 ft 3 kts 59°
2026-05-04 06:26 48.53156 7.61666 505 ft 0 kts 48°
2026-05-04 06:28 48.53190 7.61722 505 ft 22 kts 47°
2026-05-04 06:28 48.53366 7.62022 505 ft 62 kts 50°
2026-05-04 06:28 48.53804 7.62784 504 ft 127 kts 49°
2026-05-04 06:28 48.54509 7.63950 665 ft 161 kts 47°
2026-05-04 06:29 48.55231 7.65183 1398 ft 157 kts 50°
2026-05-04 06:29 48.55961 7.66478 1942 ft 170 kts 50°
2026-05-04 06:29 48.56748 7.67849 2531 ft 175 kts 49°
2026-05-04 06:29 48.57549 7.69248 3184 ft 177 kts 49°
2026-05-04 06:30 48.58353 7.70668 3839 ft 178 kts 49°
2026-05-04 06:30 48.59160 7.72098 4493 ft 179 kts 49°
2026-05-04 06:30 48.60113 7.73335 4999 ft 190 kts 21°
2026-05-04 06:30 48.61470 7.73523 5275 ft 209 kts 344°
2026-05-04 06:31 48.62785 7.72431 5544 ft 226 kts 319°
2026-05-04 06:31 48.63993 7.70787 6097 ft 238 kts 310°
2026-05-04 06:31 48.64776 7.68636 6908 ft 235 kts 279°
2026-05-04 06:31 48.64695 7.66206 7715 ft 234 kts 248°
2026-05-04 06:32 48.63950 7.64005 8491 ft 242 kts 238°
2026-05-04 06:33 48.55893 7.48182 12464 ft 329 kts 210°
2026-05-04 06:34 48.53827 7.46437 12630 ft 352 kts 209°
2026-05-04 06:34 48.51628 7.44619 13006 ft 366 kts 209°
2026-05-04 06:34 48.49371 7.42769 13664 ft 372 kts 209°
2026-05-04 06:34 48.47086 7.40898 14276 ft 376 kts 209°
2026-05-04 06:35 48.44780 7.39007 14899 ft 379 kts 209°
2026-05-04 06:36 48.28176 7.25350 18988 ft 400 kts 208°
2026-05-04 06:37 48.25726 7.23345 19519 ft 402 kts 209°
2026-05-04 06:37 48.23268 7.21338 20030 ft 404 kts 208°
2026-05-04 06:37 48.20760 7.19417 20504 ft 406 kts 206°
2026-05-04 06:37 48.18191 7.17618 21001 ft 409 kts 205°
2026-05-04 06:38 48.15580 7.15891 21449 ft 412 kts 204°
2026-05-04 06:38 48.12949 7.14185 21919 ft 414 kts 204°
2026-05-04 06:40 47.94189 7.01683 24678 ft 430 kts 205°
2026-05-04 06:40 47.91459 6.99851 25033 ft 431 kts 205°
2026-05-04 06:40 47.88798 6.98067 25378 ft 433 kts 205°
2026-05-04 06:40 47.86049 6.96226 25699 ft 434 kts 205°
2026-05-04 06:41 47.83288 6.94382 26006 ft 435 kts 205°
2026-05-04 06:41 47.80524 6.92541 26284 ft 437 kts 205°
2026-05-04 06:41 47.77739 6.90689 26566 ft 439 kts 205°
2026-05-04 06:41 47.74943 6.88832 26870 ft 441 kts 205°
2026-05-04 06:42 47.72132 6.86964 27165 ft 443 kts 205°
2026-05-04 06:42 47.69310 6.85095 27456 ft 445 kts 205°
2026-05-04 06:42 47.66478 6.83219 27740 ft 447 kts 205°
2026-05-04 06:44 47.46764 6.70219 30656 ft 437 kts 205°
2026-05-04 06:44 47.43993 6.68401 30961 ft 435 kts 205°
2026-05-04 06:44 47.41144 6.66743 31049 ft 435 kts 197°
2026-05-04 06:45 47.38206 6.65980 31055 ft 437 kts 185°
2026-05-04 06:45 47.35159 6.66152 31052 ft 440 kts 178°
2026-05-04 06:45 47.29024 6.67017 31050 ft 440 kts 178°
2026-05-04 06:46 47.22927 6.67874 31051 ft 440 kts 178°
2026-05-04 06:46 47.16828 6.68714 31054 ft 440 kts 178°
2026-05-04 06:48 46.92517 6.72036 31041 ft 439 kts 178°
2026-05-04 06:50 46.68230 6.75326 31036 ft 438 kts 178°
2026-05-04 06:51 46.62164 6.76149 31029 ft 438 kts 178°
2026-05-04 06:51 46.56095 6.76968 31020 ft 438 kts 178°
2026-05-04 06:52 46.50025 6.77783 31017 ft 438 kts 178°
2026-05-04 06:52 46.43944 6.78588 31016 ft 439 kts 178°
2026-05-04 06:53 46.37859 6.79400 31013 ft 439 kts 178°
2026-05-04 06:53 46.31780 6.80213 31020 ft 439 kts 178°
2026-05-04 06:54 46.25700 6.81024 31014 ft 438 kts 178°
2026-05-04 06:54 46.19625 6.81832 31012 ft 439 kts 178°
2026-05-04 06:55 46.13547 6.82644 31015 ft 439 kts 178°
2026-05-04 06:55 46.07466 6.83449 31015 ft 439 kts 178°
2026-05-04 06:57 45.83177 6.86644 31027 ft 440 kts 178°
2026-05-04 06:58 45.77089 6.87448 31032 ft 439 kts 178°
2026-05-04 06:58 45.71003 6.88242 31045 ft 439 kts 178°
2026-05-04 06:59 45.64920 6.89033 31052 ft 439 kts 178°
2026-05-04 06:59 45.58834 6.89816 31059 ft 437 kts 178°
2026-05-04 07:01 45.34419 6.92985 31091 ft 442 kts 178°
2026-05-04 07:02 45.28293 6.93772 31110 ft 442 kts 178°
2026-05-04 07:02 45.22215 6.94602 31117 ft 442 kts 177°
2026-05-04 07:03 45.16100 6.95595 31126 ft 442 kts 176°
2026-05-04 07:03 45.09982 6.96597 31125 ft 443 kts 176°
2026-05-04 07:04 45.03858 6.97554 31125 ft 443 kts 176°
2026-05-04 07:04 44.97728 6.98498 31126 ft 443 kts 176°
2026-05-04 07:05 44.91600 6.99449 31120 ft 443 kts 176°
2026-05-04 07:05 44.85474 7.00406 31105 ft 443 kts 176°
2026-05-04 07:06 44.76281 7.01978 31103 ft 445 kts 174°
2026-05-04 07:07 44.70168 7.03469 31099 ft 446 kts 172°
2026-05-04 07:08 44.49352 7.08555 27878 ft 414 kts 173°
2026-05-04 07:09 44.46522 7.09220 27275 ft 410 kts 173°
2026-05-04 07:09 44.43717 7.09882 26680 ft 407 kts 173°
2026-05-04 07:09 44.40937 7.10542 26083 ft 404 kts 172°
2026-05-04 07:09 44.38182 7.11196 25506 ft 400 kts 172°
2026-05-04 07:10 44.35447 7.11842 24920 ft 397 kts 172°
2026-05-04 07:10 44.32733 7.12481 24352 ft 395 kts 172°
2026-05-04 07:12 44.14604 7.19160 21480 ft 390 kts 159°
2026-05-04 07:12 44.12107 7.20617 21269 ft 389 kts 160°
2026-05-04 07:12 44.09614 7.22072 21047 ft 388 kts 159°
2026-05-04 07:12 44.07142 7.23525 20623 ft 384 kts 159°
2026-05-04 07:13 44.04692 7.24971 20084 ft 381 kts 159°
2026-05-04 07:13 44.02257 7.26403 19566 ft 379 kts 159°
2026-05-04 07:13 43.99837 7.27818 19078 ft 376 kts 159°
2026-05-04 07:14 43.90318 7.33356 16992 ft 366 kts 159°
2026-05-04 07:14 43.87980 7.34713 16530 ft 363 kts 159°
2026-05-04 07:15 43.85662 7.36057 16080 ft 359 kts 159°
2026-05-04 07:15 43.83365 7.37385 15620 ft 357 kts 159°
2026-05-04 07:15 43.81082 7.38703 15173 ft 354 kts 159°
2026-05-04 07:15 43.78815 7.40014 14709 ft 352 kts 159°
2026-05-04 07:16 43.77305 7.40795 14407 ft 348 kts 167°
2026-05-04 07:16 43.74925 7.41119 13984 ft 344 kts 182°
2026-05-04 07:16 43.72538 7.41029 13512 ft 342 kts 183°
2026-05-04 07:16 43.70173 7.40910 13044 ft 339 kts 183°
2026-05-04 07:17 43.67830 7.40785 12579 ft 336 kts 183°
2026-05-04 07:17 43.65509 7.40656 12115 ft 332 kts 183°
2026-05-04 07:17 43.63211 7.40524 11670 ft 329 kts 183°
2026-05-04 07:17 43.60938 7.40386 11221 ft 325 kts 183°
2026-05-04 07:18 43.58692 7.40245 10781 ft 322 kts 183°
2026-05-04 07:18 43.56466 7.40097 10350 ft 317 kts 185°
2026-05-04 07:18 43.54360 7.39357 9926 ft 313 kts 206°
2026-05-04 07:18 43.52665 7.37517 9440 ft 313 kts 228°
2026-05-04 07:19 43.51569 7.34927 9039 ft 312 kts 243°
2026-05-04 07:19 43.50687 7.32228 8636 ft 307 kts 243°
2026-05-04 07:19 43.49817 7.29565 8262 ft 303 kts 243°
2026-05-04 07:19 43.48962 7.26950 7877 ft 295 kts 243°
2026-05-04 07:20 43.48132 7.24412 7508 ft 286 kts 242°
2026-05-04 07:20 43.47333 7.21962 7137 ft 276 kts 242°
2026-05-04 07:20 43.46556 7.19575 6774 ft 271 kts 242°
2026-05-04 07:20 43.45785 7.17216 6391 ft 270 kts 242°
2026-05-04 07:22 43.40801 7.01542 4250 ft 237 kts 261°
2026-05-04 07:22 43.40942 6.99320 4036 ft 232 kts 288°
2026-05-04 07:23 43.41702 6.97445 3963 ft 219 kts 313°
2026-05-04 07:23 43.42854 6.96191 3975 ft 208 kts 336°
2026-05-04 07:23 43.44216 6.95624 3983 ft 203 kts 358°
2026-05-04 07:23 43.45616 6.95607 3982 ft 201 kts
2026-05-04 07:24 43.46951 6.96066 3978 ft 197 kts 27°
2026-05-04 07:24 43.48102 6.97039 3982 ft 193 kts 44°
2026-05-04 07:24 43.49056 6.98328 3984 ft 192 kts 48°
2026-05-04 07:24 43.49996 6.99617 3993 ft 185 kts 48°
2026-05-04 07:25 43.50882 7.00823 3862 ft 175 kts 48°
2026-05-04 07:26 43.56726 7.08813 2325 ft 165 kts 46°
2026-05-04 07:27 43.57539 7.09925 2117 ft 165 kts 45°
2026-05-04 07:27 43.58367 7.11052 1918 ft 168 kts 45°
2026-05-04 07:27 43.59192 7.12188 1681 ft 165 kts 45°
2026-05-04 07:27 43.59992 7.13283 1462 ft 158 kts 44°
2026-05-04 07:28 43.60753 7.14322 1261 ft 150 kts 43°
2026-05-04 07:28 43.61471 7.15312 1080 ft 143 kts 43°
2026-05-04 07:28 43.62172 7.16278 879 ft 142 kts 41°
2026-05-04 07:28 43.62871 7.17234 692 ft 141 kts 41°
2026-05-04 07:29 43.63569 7.18186 501 ft 140 kts 42°
2026-05-04 07:29 43.64244 7.19109 335 ft 134 kts 41°
2026-05-04 07:29 43.64909 7.20018 159 ft 135 kts 42°
2026-05-04 07:29 43.65565 7.20941 25 ft 130 kts 43°
2026-05-04 07:30 43.66019 7.21554 20 ft 48 kts 44°
2026-05-04 07:30 43.66150 7.21737 21 ft 12 kts 45°
2026-05-04 07:30 43.66224 7.21737 21 ft 13 kts 317°
2026-05-04 07:30 43.66296 7.21639 21 ft 16 kts 315°
2026-05-04 07:31 43.66368 7.21537 21 ft 13 kts 305°
2026-05-04 07:31 43.66354 7.21438 21 ft 11 kts 253°
2026-05-04 07:33 43.66244 7.20745 24 ft 7 kts 224°
2026-05-04 07:33 43.66229 7.20692 21 ft 3 kts 260°
2026-05-04 07:33 43.66227 7.20670 21 ft 2 kts 262°
2026-05-04 07:33 43.66227 7.20668 21 ft 0 kts 262°
2026-05-04 07:34 43.66227 7.20666 21 ft 0 kts 262°